Погода в Хапо-Ое

Россия / Санкт-Петербург и Ленинградская область     59°52′58″N   30°44′38″E
темп.,
°C
ветер,
м/с
пор.,
м/с
влажн.,
%
обл.,
%
осадки,
мм/ч
давл.,
гПа
погр.,
м
3 марта, ср
ср300:00−1зсз410880 0.0 1017412
03:00−1зсз412902 0.0 1017494
06:00−2з4109219 0.0 1015440
09:00−2з4119130 0.0 1015472
12:000з6118677 0.0 1012565
15:00+1з6128189 0.0 1010798
18:00+1з61283100 0.0 10061008
21:00+1з41290100 0.0 1004863
4 марта, чт
чт400:00−2сз31084100 0.0 1003610
03:00−4зсз398050 0.0 1004366
06:00−5зсз27830 0.0 1003309
09:00−5зсз26860 0.0 1003325
12:00−2ссз237529 0.0 1003686
15:00−3с348564 0.3 1004486
18:00−4с3588100 0.4 1004558
21:00−5ссз3787100 0.8 1005717
5 марта, пт
пт500:00−6сз278693 0.0 1006469
03:00−7сз269083 0.0 1007386
06:00−8сз268990 0.0 1008545
09:00−7сз358695 0.1 1009538
12:00−6ссз2478100 0.1 1011664
15:00−5ссз2475100 0.2 1013700
18:00−6с2386100 0.2 1013407
21:00−8зсз129195 0.3 101543
6 марта, сб
сб600:00−8зсз259189 0.0 1016197
03:00−9з259350 0.0 1016155
06:00−9зюз26930 0.0 1015201
09:00−8зюз310850 0.0 1013460
12:00−4юз596933 0.0 10111032
15:00−4ююз7138867 0.3 1006946
18:00−3юз81690100 1.5 9991300
21:00−2юз61396100 4.1 9941035
7 марта, вс
вс700:00−1зюз51297100 4.3 989890
03:000зюз71396100 9.0 9841048
06:00−6з81468100 0.2 9811445
09:00−10з8169072 0.4 9811111
12:00−6сз71390100 1.4 9831274
15:00−5ссз51191100 2.2 9851019
18:00−7с71490100 1.6 9901202
21:00−10с71486100 2.3 9961032